Satellite-Ground Cal/Val Site Overpasses Predictions

Prediction of Satellite NPP Overpassing Cal/Val Site: Antarctic Dome C

Ground Cal/Val Site Location: Latitude: -75.10, Longitude: 123.35; Satellite-Ground Site NADIR distance within 100 km.

Table of predicted overpasses for the next 14.0 days since TLE Epoch: 3/2/2024
Interval Starting Time Ending Time Minimum Distance Time Minimum Distance (km)
1 03/02/2024 07:31:52 03/02/2024 07:32:21 03/02/2024 07:32:06 1.29
2 03/05/2024 14:55:15 03/05/2024 14:55:44 03/05/2024 14:55:30 21.39
3 03/06/2024 14:36:33 03/06/2024 14:36:47 03/06/2024 14:36:40 85.84
4 03/07/2024 07:38:04 03/07/2024 07:38:31 03/07/2024 07:38:17 35.05
5 03/08/2024 07:19:18 03/08/2024 07:19:37 03/08/2024 07:19:27 75.13
6 03/10/2024 15:01:30 03/10/2024 15:01:53 03/10/2024 15:01:42 57.82
7 03/11/2024 14:42:38 03/11/2024 14:43:03 03/11/2024 14:42:50 51.50
8 03/12/2024 07:44:18 03/12/2024 07:44:39 03/12/2024 07:44:29 69.77
9 03/13/2024 07:25:24 03/13/2024 07:25:51 03/13/2024 07:25:38 38.34
